Regional Weather Roundup
Issued by NWS

Home | Current Version | Previous Version | Graphics & Text | Print | Product List | Glossary On
Versions: 1 2 3 4 5 6 7 8 9 10 11 12 13 14 15 16 17 18 19 20 21 22 23 24 25 26 27 28 29 30 31 32 33 34 35 36 37 38 39 40 41 42 43 44 45 46 47 48 49 50
000
ASUS43 KMPX 211110
RWRMN
WEATHER ROUNDUP FOR MINNESOTA
NATIONAL WEATHER SERVICE TWIN CITIES/CHANHASSEN MN
600 AM CDT TUE OCT 21 2014


NOTE: "FAIR" INDICATES FEW OR NO CLOUDS BELOW 12,000 FEET WITH NO
SIGNIFICANT WEATHER AND/OR OBSTRUCTIONS TO VISIBILITY. N/A MEANS
CURRENT SKY AND/OR WEATHER CONDITIONS ARE NOT AVAILABLE.

MNZ060>063-068>070-211200-
   Twin Cities Metro

CITY           SKY/WX    TMP DP  RH WIND       PRES   REMARKS
TWIN CITIES    CLEAR     39  36  89 NE3       30.16R
ST PAUL        CLEAR     38  36  92 CALM      30.18R
CRYSTAL        CLEAR     33  32  96 CALM      30.15S
BLAINE         CLEAR     34  34 100 E3        30.16S
LAKEVILLE      CLEAR     30  30 100 CALM      30.15S FOG
EDEN PRAIRIE   CLEAR     38  36  92 NE5       30.14S
SOUTH ST PAUL  CLEAR     37  36  93 CALM      30.17R
LAKE ELMO      FAIR      32  32 100 CALM      30.18R FOG
$$
MNZ001>005-007-008-013>017-022>024-027-028-211200-
   Northwest Minnesota

CITY           SKY/WX    TMP DP  RH WIND       PRES   REMARKS
BEMIDJI        CLEAR     34  33  96 SE6       30.12S WCI  29
HALLOCK        CLEAR     39  36  87 SE9       30.04S
ROSEAU         CLEAR     37  34  87 SE8       30.09S
WARROAD        CLEAR     36  32  87 SE8       30.11S
THIEF RVR FALL CLEAR     36  34  93 SE9       30.08S
CROOKSTON      CLEAR     37  36  93 SE9       30.07R
FOSSTON        CLEAR     37  34  87 SE8       30.09S
DETROIT LAKES  FAIR      41  37  87 SE13      30.10S
MOORHEAD       CLEAR     43  41  93 SE10      30.07S
PARK RAPIDS    CLEAR     37  35  92 SE7       30.12S
MAHNOMEN       FAIR      40  37  88 SE12      30.08S
$$
MNZ006-009>011-018-025>026-211200-
   North Central Minnesota

CITY           SKY/WX    TMP DP  RH WIND       PRES   REMARKS
BAUDETTE       PTCLDY    35  32  88 SE7       30.14S WCI  29
FLAG ISLAND    CLEAR     43  37  81 SE20      30.11S
INTL FALLS     CLOUDY    40  34  79 SE5       30.17R
WASKISH        CLEAR     32  30  93 CALM      30.13F
BIG FORK       CLEAR     37  34  87 CALM      30.16S
LONGVILLE      CLEAR     27  27 100 CALM      30.15R
GRAND RAPIDS   PTCLDY    36  32  87 SE6       30.16R
CRANE LAKE     CLOUDY    39  36  87 CALM      30.21R
ORR            CLOUDY    36  30  80 CALM      30.16R
COOK           CLOUDY    37  34  87 CALM      30.18S
WALKER         FAIR      37  35  90 SE5       30.13S
$$
MNZ012-019>021-037-211200-
   Northeast Minnesota

CITY           SKY/WX    TMP DP  RH WIND       PRES   REMARKS
DULUTH         CLOUDY    43  36  76 E9        30.18R
ELY            CLOUDY    37  32  81 E3        30.20R
HIBBING        CLOUDY    41  35  79 SE6       30.18R
EVELETH        CLOUDY    39  34  81 SE5       30.19R
DULUTH HARBOR  CLOUDY    46  39  76 E10       30.21R
TWO HARBORS    CLOUDY    45  28  53 E7        30.19R
SILVER BAY     MOCLDY    43  36  75 NE3       30.20R
GRAND MARAIS     N/A     40  31  70 N3        30.24R
G MARAIS ARPRT CLOUDY    32  27  80 NE5       30.21S WCI  27
$$
MNZ029>031-032-039>041-046>048-054>057-064-211200-
   West Central Minnesota

CITY           SKY/WX    TMP DP  RH WIND       PRES   REMARKS
FERGUS FALLS   CLEAR     43  36  75 SE9       30.11S
WHEATON        CLEAR     37  36  93 SE12      30.09F
MORRIS         CLEAR     39  37  93 SE8       30.10R
ALEXANDRIA     CLEAR     39  36  89 SE8       30.13S
ELBOW LAKE     FAIR      41  37  87 SE8       30.10S
WADENA         CLEAR     32  32 100 SE3       30.13R
GLENWOOD       CLEAR     36  34  93 E7        30.13R
APPLETON       CLEAR     39  36  87 E8        30.10S
BENSON         CLEAR     41  37  87 SE9       30.11S
ORTONVILLE     CLEAR     37  36  93 SE7       30.09R
MADISON        CLEAR     37  36  93 SE5       30.09S
WILLMAR        FAIR      39  37  93 E7        30.14R
$$
MNZ033>034-036-042>043-049>051-058-059-211200-
   Central Minnesota

CITY           SKY/WX    TMP DP  RH WIND       PRES   REMARKS
ST CLOUD       CLEAR     39  35  86 E3        30.15S
SAUK CENTRE    FAIR      33  32  96 CALM      30.15R
PAYNESVILLE    CLEAR     37  35  94 NE7       30.15R
AITKIN         CLEAR     28  23  80 CALM      30.15S
PINE RIVER     PTCLDY    30  28  93 CALM      30.17S
BRAINERD       PTCLDY    29  29 100 CALM      30.15S FOG
STAPLES        CLEAR     34  34 100 E3        30.13S
LONG PRAIRIE   FAIR      34  34 100 CALM      30.14R
LITTLE FALLS   CLEAR     37  34  87 CALM      30.15R
LITCHFIELD     FAIR      37  37 100 CALM      30.15R
BUFFALO        CLEAR     34  32  92 CALM      30.17R
MAPLE LAKE     CLEAR     35  35  99 CALM      30.17R FOG
$$
MNZ037-044-045-052-053-211200-
   East Central Minnesota

CITY           SKY/WX    TMP DP  RH WIND       PRES   REMARKS
PRINCETON      CLEAR     30  30 100 CALM      30.16S FOG
MORA           CLEAR     30  30 100 CALM      30.19R
CAMBRIDGE      CLEAR     34  27  75 CALM      30.15S
RUSH CITY      PTCLDY    30  29  95 CALM      30.18R
MOOSE LAKE     CLOUDY    41  37  87 SE3       30.17R
HINCKLEY       CLOUDY    32  32 100 CALM      30.18R
CLOQUET        CLOUDY    43  37  81 E5        30.18R
MCGREGOR         N/A     32  30  93 CALM      30.18R
$$
MNZ071>073-080-081-089-090-097-098-211200-
   Southwest Minnesota

CITY           SKY/WX    TMP DP  RH WIND       PRES   REMARKS
MONTEVIDEO     CLEAR     36  36 100 S6        30.12R
GRANITE FALLS  CLEAR     38  36  91 E6        30.13S
CANBY          CLEAR     32  32  99 SE3       30.10S
MARSHALL       CLEAR     37  32  81 SE6       30.09S
REDWOOD FALLS  PTCLDY    39  36  89 E5        30.12R
OLIVIA         CLEAR     41  36  81 E8        30.12R
PIPESTONE      CLEAR     45  37  76 SE5       30.09R
WINDOM         PTCLDY    37  36  93 CALM      30.12R
WORTHINGTON    CLEAR     36  34  93 SE3       30.12S
JACKSON        PTCLDY    36  32  87 E3        30.12R
TRACY          PTCLDY    46  38  76 S8        30.11R
SLAYTON        CLEAR     37  33  85 CALM      30.11S
$$
MNZ065>067-074>077-082>085-091>093-211200-
   South Central Minnesota

CITY           SKY/WX    TMP DP  RH WIND       PRES   REMARKS
MANKATO        CLEAR     41  34  75 E7        30.13S
NEW ULM        CLEAR     39  37  93 E3        30.13S
ST JAMES       PTCLDY    36  34  93 E5        30.14R
FAIRMONT       PTCLDY    34  28  80 CALM      30.12S
GLENCOE        CLEAR     37  37  99 E5        30.14S
FARIBAULT      CLEAR     30  28  93 CALM      30.15S
OWATONNA       CLEAR     36  34  93 CALM      30.15R
WASECA         CLEAR     32  30  93 CALM      30.16R FOG
ALBERT LEA     CLEAR     36  36 100 CALM      30.14R
$$
MNZ078>079-086>088-094>096-211200-
   Southeast Minnesota

CITY           SKY/WX    TMP DP  RH WIND       PRES   REMARKS
ROCHESTER      CLEAR     39  36  89 NE5       30.16R
RED WING       CLEAR     34  32  93 CALM      30.16R
STANTON        CLEAR     32  31  94 CALM      30.15R
DODGE CENTER   PTCLDY    37  36  93 E3        30.15R
WINONA         CLEAR     36  36 100 CALM      30.17R
AUSTIN         CLEAR     34  34 100 CALM      30.14R
PRESTON        CLEAR     38  36  91 CALM      30.15S
$$
ABBREVIATIONS USED IN REMARKS
   TC - TEMPERATURES IN CELSIUS
  WCI - WIND CHILL INDEX
   HX - HEAT INDEX
  VSB - VISIBILITY
$$


USA.gov is the U.S. government's official web portal to all federal, state and local government web resources and services.